Weather History for Deering, AK

Change the Weather History Date:

Wednesday, November 27, 2013

  Actual Average (PAOT) Record (PAOT)
Temperature  
Mean Temperature 14 °F -  
Max Temperature 18 °F 12 °F 36 °F (1943)
Min Temperature 9 °F - -27 °F (1986)
Degree Days  
Heating Degree Days 52 59  
Month to date heating degree days 1498  
Since 1 July heating degree days 4180  
Cooling Degree Days 0    
Month to date cooling degree days  
Year to date cooling degree days  
Moisture  
Dew Point 10 °F    
Average Humidity 82    
Maximum Humidity 92    
Minimum Humidity 74    
Precipitation  
Precipitation 0.00 in 0.02 in 0.25 in (2003)
Month to date precipitation 0.69  
Year to date precipitation 10.16  
Snow  
Snow 0.00 in 0.30 in 8.00 in (2003)
Month to date snowfall 9.3  
Since 1 July snowfall 16.2  
Since 1 September snowfall 16.2  
Snow Depth -    
Sea Level Pressure  
Sea Level Pressure 30.00 in    
Wind  
Wind Speed 12 mph (West)    
Max Wind Speed 24 mph    
Max Gust Speed -    
Visibility 4 miles    
Events Snow    
T = Trace of Precipitation, MM = Missing Value Source: NWS Daily Summary

Daily Weather History Graph

Daily Weather History Graph

Search for Another Location

Airport:

Trip Planner

Search our weather history database for the weather conditions in past years. The results will help you decide how hot, cold, wet, or windy it might be!

Date:

Astronomy

Nov. 27, 2013 Rise Set
Actual Time 11:26 AM AKST 3:50 PM AKST
Civil Twilight 10:06 AM AKST 5:10 PM AKST
Nautical Twilight 8:54 AM AKST 6:22 PM AKST
Astronomical Twilight 7:52 AM AKST 7:24 PM AKST
Moon 3:11 AM AKST 2:52 PM AKST
Length of Visible Light 7h 04m
Length of Day
4h 23m
Waning Crescent, 30% of the Moon is Illuminated
Nov 27
Waning Crescent
Dec 2
New
Dec 9
First Quarter
Dec 17
Full
Dec 25
Last Quarter

Hourly Weather History & Observations

Time (AKST) Temp. Windchill Dew Point Humidity Pressure Visibility Wind Dir Wind Speed Gust Speed Precip Events Conditions
12:53 AM 9.0 °F 2.4 °F 3.9 °F 80% 29.97 in 10.0 mi South 3.5 mph - N/A   Overcast
1:41 AM 12.2 °F 0.7 °F 6.8 °F 79% 29.96 in 2.5 mi SSW 8.1 mph - 0.00 in Snow Light Snow
1:53 AM 12.9 °F 2.6 °F 8.1 °F 81% 29.96 in 2.0 mi SSW 6.9 mph - 0.00 in Snow Light Snow
2:00 AM 12.2 °F 2.9 °F 8.6 °F 85% 29.96 in 1.8 mi South 5.8 mph - 0.00 in Snow Light Snow
2:34 AM 14.0 °F 8.2 °F 10.4 °F 86% 29.95 in 2.5 mi South 3.5 mph - 0.00 in Snow Light Snow
2:53 AM 15.1 °F 4.2 °F 10.9 °F 84% 29.95 in 2.0 mi South 8.1 mph - 0.00 in Snow Light Snow
3:14 AM 15.8 °F 8.6 °F 10.4 °F 79% 29.94 in 3.0 mi South 4.6 mph - 0.00 in Snow Light Snow
3:21 AM 15.8 °F 8.6 °F 10.4 °F 79% 29.94 in 5.0 mi South 4.6 mph - 0.00 in Snow Light Snow
3:53 AM 18.0 °F 3.1 °F 12.9 °F 81% 29.94 in 4.0 mi WSW 16.1 mph - 0.00 in Snow Light Snow
4:02 AM 17.6 °F 2.2 °F 14.0 °F 86% 29.94 in 4.0 mi WSW 17.3 mph - 0.00 in Snow Light Snow
4:23 AM 17.6 °F 2.2 °F 14.0 °F 86% 29.93 in 3.0 mi WSW 17.3 mph - 0.00 in Snow Light Snow
4:25 AM 17.6 °F 2.2 °F 14.0 °F 86% 29.93 in 2.5 mi WSW 17.3 mph - 0.00 in Snow Light Snow
4:35 AM 17.6 °F 2.7 °F 14.0 °F 86% 29.93 in 2.5 mi WSW 16.1 mph - 0.00 in Snow Light Snow
4:42 AM 17.6 °F 3.2 °F 12.2 °F 79% 29.94 in 3.0 mi WSW 15.0 mph - 0.00 in Snow Light Snow
4:49 AM 17.6 °F 2.7 °F 12.2 °F 79% 29.94 in 4.0 mi WSW 16.1 mph - 0.00 in Snow Light Snow
4:53 AM 17.1 °F 2.0 °F 12.9 °F 84% 29.94 in 5.0 mi WSW 16.1 mph - 0.00 in Snow Light Snow
5:53 AM 16.0 °F -1.3 °F 12.0 °F 84% 29.94 in 3.0 mi WSW 20.7 mph - 0.00 in Snow Light Snow
6:53 AM 15.1 °F -0.6 °F 10.0 °F 80% 29.95 in 7.0 mi WSW 16.1 mph - 0.00 in   Overcast
7:53 AM 15.1 °F -2.5 °F 10.0 °F 80% 29.95 in 6.0 mi WSW 20.7 mph - 0.00 in   Haze
8:12 AM 15.8 °F -1.1 °F 10.4 °F 79% 29.95 in 1.8 mi WSW 19.6 mph - 0.00 in Snow Light Snow
8:21 AM 15.8 °F -1.1 °F 10.4 °F 79% 29.95 in 1.8 mi WSW 19.6 mph - 0.00 in Snow Light Snow
8:29 AM 15.8 °F -2.7 °F 10.4 °F 79% 29.95 in 2.5 mi WSW 24.2 mph - 0.00 in Snow Light Snow
8:39 AM 15.8 °F -1.5 °F 10.4 °F 79% 29.96 in 3.0 mi WSW 20.7 mph - 0.00 in Snow Light Snow
8:53 AM 15.1 °F -0.1 °F 10.0 °F 80% 29.97 in 6.0 mi West 15.0 mph - 0.00 in   Haze
9:53 AM 15.1 °F -2.5 °F 10.9 °F 84% 29.99 in 7.0 mi West 20.7 mph - N/A   Overcast
10:53 AM 15.1 °F -2.0 °F 10.9 °F 84% 30.01 in 10.0 mi West 19.6 mph - N/A   Overcast
11:49 AM 10.4 °F -2.4 °F 8.6 °F 92% 30.02 in 10.0 mi WNW 9.2 mph - 0.00 in   Scattered Clouds
11:53 AM 10.9 °F -1.8 °F 7.0 °F 84% 30.03 in 10.0 mi West 9.2 mph - 0.00 in   Partly Cloudy
12:53 PM 12.0 °F -2.7 °F 8.1 °F 84% 30.04 in 10.0 mi West 12.7 mph - N/A   Mostly Cloudy
1:53 PM 15.1 °F 1.8 °F 10.9 °F 84% 30.04 in 4.0 mi West 11.5 mph - 0.00 in Snow Light Snow
2:28 PM 15.8 °F 2.1 °F 10.4 °F 79% 30.04 in 1.8 mi West 12.7 mph - 0.00 in Snow Light Snow
2:37 PM 15.8 °F 2.7 °F 12.2 °F 86% 30.03 in 2.0 mi West 11.5 mph - 0.00 in Snow Light Snow
2:53 PM 16.0 °F 1.7 °F 12.0 °F 84% 30.04 in 2.5 mi West 13.8 mph - 0.00 in Snow Light Snow
3:01 PM 15.8 °F 1.4 °F 12.2 °F 86% 30.04 in 1.0 mi West 13.8 mph - 0.00 in Snow Light Snow
3:29 PM 15.8 °F -0.2 °F 10.4 °F 79% 30.05 in 3.0 mi WNW 17.3 mph - 0.00 in Snow Light Snow
3:53 PM 16.0 °F 1.7 °F 9.0 °F 74% 30.05 in 5.0 mi WNW 13.8 mph - 0.00 in Snow Light Snow
4:02 PM 15.8 °F 1.4 °F 10.4 °F 79% 30.04 in 1.8 mi WNW 13.8 mph - 0.00 in Snow Light Snow
4:14 PM 15.8 °F 0.3 °F 10.4 °F 79% 30.04 in 2.0 mi WNW 16.1 mph - 0.00 in Snow Light Snow
4:20 PM 15.8 °F -0.2 °F 10.4 °F 79% 30.04 in 1.8 mi WNW 17.3 mph - 0.00 in Snow Light Snow
4:53 PM 16.0 °F 1.1 °F 10.9 °F 81% 30.04 in 1.2 mi WNW 15.0 mph - 0.00 in Snow Light Snow
5:08 PM 15.8 °F 1.4 °F 10.4 °F 79% 30.04 in 2.0 mi WNW 13.8 mph - 0.00 in Snow Light Snow
5:17 PM 15.8 °F 2.1 °F 10.4 °F 79% 30.04 in 5.0 mi WNW 12.7 mph - 0.00 in Snow Light Snow
5:26 PM 15.8 °F 2.7 °F 10.4 °F 79% 30.04 in 2.0 mi WNW 11.5 mph - 0.00 in Snow Light Snow
5:33 PM 15.8 °F 3.4 °F 10.4 °F 79% 30.04 in 1.2 mi WNW 10.4 mph - 0.00 in Snow Light Snow
5:39 PM 15.8 °F 3.4 °F 10.4 °F 79% 30.04 in 2.0 mi West 10.4 mph - 0.00 in Snow Light Snow
5:53 PM 14.0 °F -0.2 °F 10.0 °F 84% 30.05 in 2.5 mi West 12.7 mph - 0.00 in Snow Light Snow
6:11 PM 15.8 °F -1.1 °F 10.4 °F 79% 30.04 in 5.0 mi West 19.6 mph - 0.00 in Snow Light Snow
6:53 PM 15.1 °F -1.6 °F 10.0 °F 80% 30.04 in 9.0 mi West 18.4 mph - 0.00 in   Overcast
7:53 PM 15.1 °F -0.6 °F 8.1 °F 74% 30.06 in 10.0 mi WNW 16.1 mph - N/A   Overcast
8:32 PM 14.0 °F 0.5 °F 10.4 °F 86% 30.06 in 5.0 mi WNW 11.5 mph - 0.00 in Snow Light Snow
8:40 PM 14.0 °F -1.4 °F 8.6 °F 79% 30.05 in 5.0 mi WNW 15.0 mph - 0.00 in Snow Light Snow
8:53 PM 14.0 °F -2.0 °F 8.1 °F 77% 30.06 in 10.0 mi WNW 16.1 mph - 0.00 in   Overcast
9:53 PM 10.9 °F -2.6 °F 7.0 °F 84% 30.06 in 9.0 mi West 10.4 mph - 0.00 in   Overcast
10:53 PM 12.9 °F -0.9 °F 8.1 °F 81% 30.06 in 3.0 mi West 11.5 mph - 0.00 in Snow Light Snow
11:05 PM 12.2 °F -1.0 °F 8.6 °F 85% 30.06 in 2.5 mi West 10.4 mph - 0.00 in Snow Light Snow
11:12 PM 12.2 °F -1.8 °F 8.6 °F 85% 30.05 in 5.0 mi West 11.5 mph - 0.00 in   Overcast
11:50 PM 12.2 °F -3.7 °F 8.6 °F 85% 30.06 in 5.0 mi West 15.0 mph - 0.00 in Snow Light Snow
11:53 PM 12.0 °F -4.0 °F 7.0 °F 80% 30.06 in 5.0 mi West 15.0 mph - 0.00 in Snow Light Snow